Regional Weather Roundup
Issued by NWS Kansas City/Pleasant Hill, MO

Home | Current Version | Previous Version | Graphics & Text | Print | Product List | Glossary Off
Versions: 1 2 3 4 5 6 7 8 9 10 11 12 13 14 15 16 17 18 19 20 21 22 23 24 25 26 27

000
ASUS43 KEAX 270310
RWREAX

WEATHER ROUNDUP FOR EASTERN KANSAS AND NORTHWEST MISSOURI
NATIONAL WEATHER SERVICE KANSAS CITY/PLEASANT HILL MO
1000 PM CDT FRI MAY 26 2017

KSZ040-057-103>105-MOZ028-029-037-043-270400-
...KANSAS CITY METROPOLITAN AREA...

CITY           SKY/WX    TMP DP  RH WIND       PRES   REMARKS
K.C. INTL      CLEAR     77  63  61 E6        29.83R
K.C. DOWNTOWN  CLEAR     76  64  66 E5        29.81R
LEES SUMMIT    CLEAR     75  65  70 E3        29.83R
OLATHE - IXD   CLEAR     75  64  68 E3        29.83R
OLATHE - OJC   CLEAR     75  65  70 E3        29.83R
LAWRENCE       CLEAR     71  66  84 CALM      29.81R

$$

MOZ001>008-011>017-020>025-030>033-038>040-044>046-053-054-270400-
...NORTHERN AND CENTRAL MISSOURI...

CITY           SKY/WX    TMP DP  RH WIND       PRES   REMARKS
ST. JOSEPH     PTCLDY    73  65  75 CALM      29.82R
WARRENSBURG    CLEAR     72  64  78 S3        29.82R
WHITEMAN AFB   NOT AVBL
CLINTON        CLEAR     68  68 100 CALM      29.83R
SEDALIA        CLEAR     72  69  90 S6        29.84R
WARSAW         NOT AVBL
CHILLICOTHE      N/A     70  66  87 CALM      29.83R
KIRKSVILLE     CLEAR     65  63  93 CALM      29.85R

$$

MOZ041-047>049-056>058-063>065-088>090-097-270400-
...EASTERN AND SOUTHERN MISSOURI...

CITY           SKY/WX    TMP DP  RH WIND       PRES   REMARKS
ST. LOUIS INTL PTCLDY    77  67  71 SW8       29.82R
SPIRIT OF STL  MOCLDY    74  70  87 S7        29.81R
COLUMBIA       CLEAR     72  68  87 SW3       29.84R
JEFFERSON CITY CLEAR     74  67  78 CALM      29.83R
ROLLA          PTCLDY    69  68  96 S3        29.85R
OSAGE BEACH    CLEAR     69  68  96 CALM      29.85R
SPRINGFIELD    MOCLDY    76  70  82 E7        29.84R
BRANSON        CLOUDY    75  70  83 SE5       29.85R
JOPLIN         MOCLDY    77  70  79 E5        29.82R
WEST PLAINS    CLOUDY    74  68  81 S7        29.88R

$$

IAZ060-094-KSZ022-034>040-054-083-096-NEZ052-066-093-270400-
...KANSAS...SOUTHEAST NEBRASKA AND IOWA...

CITY           SKY/WX    TMP DP  RH WIND       PRES   REMARKS
TOPEKA         CLEAR     73  68  84 CALM      29.81R
MANHATTAN      CLEAR     68  63  84 CALM      29.81R
EMPORIA        CLEAR     73  63  70 E5        29.82R
CHANUTE        CLEAR     75  65  70 E5        29.81R
WICHITA        CLEAR     74  62  66 E8        29.81R
OMAHA          PTCLDY    63  54  72 N3        29.86R
LINCOLN        CLEAR     67  50  54 NE8       29.86R
FALLS CITY     PTCLDY    71  55  56 N5        29.82R
LAMONI         PTCLDY    73  61  65 CALM      29.84R
DES MOINES     PTCLDY    71  63  75 SE7       29.83R

$$





USA.gov is the U.S. government's official web portal to all federal, state and local government web resources and services.